This demonstration page uses our WeatherBlox Daily Observations layout. Learn more.

Left ArrowRight Arrow

47.50024, -111.30081

Hourly Observations for April 21, 2016

Temp ( °F °C ) Dew Point ( °F °C ) Humidity (%) Winds ( mph kmh ) Pressure ( in mb ) Visibility ( mi km ) Precip ( " mm )
12:53 am 00:53 Clear 46 7.8 40 4.4 79 79 W 6 9 30.04 1017 10 16 0.00 0.00
1:53 am 01:53 Clear 43 6.1 38 3.3 82 82 W 5 7 30.04 1017 10 16 0.00 0.00
2:53 am 02:53 Clear 45 7.2 39 3.9 80 80 SSW 5 7 30.01 1016 10 16 0.00 0.00
3:53 am 03:53 Clear 41 5 36 2.2 82 82 Calm 30.03 1017 10 16 0.00 0.00
4:53 am 04:53 Clear 43 6.1 37 2.8 80 80 N 5 7 30.01 1016 10 16 0.00 0.00
5:53 am 05:53 Clear 39 3.9 35 1.7 86 86 WSW 9 15 30.01 1016 10 16 0.00 0.00
6:53 am 06:53 Sunny 42 5.6 38 3.3 85 85 Calm 30.01 1016 10 16 0.00 0.00
7:53 am 07:53 Sunny 51 10.6 43 6.1 74 74 Calm 29.99 1016 10 16 0.00 0.00
8:53 am 08:53 Sunny 55 12.8 43 6.1 64 64 SSW 7 11 29.98 1015 10 16 0.00 0.00
9:53 am 09:53 Sunny 61 16.1 45 7.2 56 56 E 3 6 29.96 1015 10 16 0.00 0.00
10:53 am 10:53 Sunny 64 17.8 45 7.2 50 50 ESE 9 15 29.94 1014 10 16 0.00 0.00
11:53 am 11:53 Sunny 67 19.4 45 7.2 45 45 ESE 9 15 29.91 1013 10 16 0.00 0.00
12:53 pm 12:53 Sunny 71 21.7 45 7.2 39 39 ESE 8 13 29.88 1012 10 16 0.00 0.00
1:53 pm 13:53 Sunny 74 23.3 38 3.3 27 27 SE 12 19 29.85 1011 10 16 0.00 0.00
2:53 pm 14:53 Mostly Sunny 77 25 34 1.1 21 21 S 9 15 29.82 1010 10 16 0.00 0.00
3:53 pm 15:53 Sunny 78 25.6 34 1.1 20 20 SW 8 13 29.80 1009 10 16 0.00 0.00
4:53 pm 16:53 Sunny 78 25.6 31 -0.6 18 18 S 9 15 29.78 1008 10 16 0.00 0.00
5:53 pm 17:53 Sunny 77 25 31 -0.6 18 18 S 10 17 29.78 1008 10 16 0.00 0.00
6:53 pm 18:53 Sunny 74 23.3 33 0.6 22 22 S 8 13 29.77 1008 10 16 0.00 0.00
7:53 pm 19:53 Sunny 67 19.4 36 2.2 32 32 SSE 7 11 29.75 1008 10 16 0.00 0.00
8:53 pm 20:53 Clear 60 15.6 38 3.3 44 44 SSE 7 11 29.75 1008 10 16 0.00 0.00
9:53 pm 21:53 Clear 60 15.6 34 1.1 38 38 S 9 15 29.75 1007 10 16 0.00 0.00
10:53 pm 22:53 Clear 62 16.7 33 0.6 34 34 S 12 19 29.74 1007 10 16 0.00 0.00
11:53 pm 23:53 Clear 63 17.2 35 1.7 35 35 S 13 20 29.72 1007 10 16 0.00 0.00

Powered by AerisWeather